Volver al catálogo

STARLINK-34328

ActivoComunicacionesVLEO
NORAD 64220·PAYLOAD·🇺🇸 United States

Lanzado May 31, 2025 desde Vandenberg Space Force Base

Loading…

Próximos Pases (próximas 24 horas)

TLE

ActualizadoSource: CelesTrak SupGP

Época: Sep 14, 2026, 22:37 UTC

1 64220C 25117T   26257.94284722  .00032427  00000+0  95788-3 0  2574
2 64220  53.1582 237.6286 0001363  93.7730 217.4293 15.34380660    11

Sigue STARLINK-34328 en tiempo real con AllMySat

Download on the App Store